Weather WX

World > North America > United States > Minnesota

Grey Cloud Island, Minnesota Regional Weather

Lat: 44.84N, Lon: 93W
Wx Zone: MNZ063
Feedback

Grey Cloud Island, MN Regional Weather

Expires:201906200400;;763605
ASUS43 KMPX 200310
RWRMN 
WEATHER ROUNDUP FOR MINNESOTA
NATIONAL WEATHER SERVICE TWIN CITIES/CHANHASSEN MN
1000 PM CDT WED JUN 19 2019


NOTE: "FAIR" INDICATES FEW OR NO CLOUDS BELOW 12,000 FEET WITH NO
SIGNIFICANT WEATHER AND/OR OBSTRUCTIONS TO VISIBILITY. N/A MEANS
CURRENT SKY AND/OR WEATHER CONDITIONS ARE NOT AVAILABLE.


MNZ060>063-068>070-200400-
   Twin Cities Metro   
  
CITY           SKY/WX    TMP DP  RH WIND       PRES   REMARKS
TWIN CITIES    CLOUDY    72  51  47 E7        29.74R                  
ST PAUL        FAIR      68  54  60 CALM      29.74R                  
CRYSTAL        FAIR      71  53  52 NE5       29.73S                  
BLAINE         MOCLDY    72  52  49 NE6       29.75R                  
EDEN PRAIRIE   FAIR      71  53  52 CALM      29.73R                  
SOUTH ST PAUL  FAIR      70  52  53 CALM      29.74R                  
LAKE ELMO        N/A     64  55  72 CALM      29.76R                  
$$

SKY/WX - Weather  TMP - Temperature  DP - Dew Point  RH - Relative Humidity
WIND - Wind Direction/Speed PRES - Barometric Pressure VSB - Visibility
WCI - Wind Chill Index E13G22 Wind - East Wind 13 mph/Gusts of 22 mph